Regional Weather Roundup
Issued by NWS Boston, MA

Current Version | Previous Version | Text Only | Print | Product List | Glossary Off
Versions: 1 2 3 4 5 6 7 8 9 10 11 12 13 14 15 16 17 18 19 20 21 22 23 24 25 26 27

000
ASUS41 KBOX 222110
RWRBOX

REGIONAL WEATHER ROUNDUP
NATIONAL WEATHER SERVICE TAUNTON MA
500 PM EDT TUE AUG 22 2017

NOTE:  "FAIR" INDICATES FEW OR NO CLOUDS BELOW 12,000 FEET WITH NO
SIGNIFICANT WEATHER AND/OR OBSTRUCTIONS TO VISIBILITY.

MAZALL-222200-
EASTERN MASSACHUSETTS

CITY           SKY/WX    TMP DP  RH WIND       PRES   REMARKS
BOSTON         MOSUNNY   87  73  62 S16       29.79F HX  94
BEVERLY        MOSUNNY   89  71  55 S10G25    29.77F HX  95
LAWRENCE       SUNNY     92  70  48 S10G26    29.79F HX  97
BEDFORD        PTSUNNY   87  67  51 S16G30    29.77F HX  90
BLUE HILL        N/A     84  70  62 S20G31    29.82F
NORWOOD        MOSUNNY   88  74  63 S14       29.80F HX  96
MARSHFIELD     MOSUNNY   84  73  70 SW13G21   29.82S HX  91
PLYMOUTH       CLOUDY    77  71  82 S8G20     29.86F
TAUNTON        MOSUNNY   82  72  71 SW14G24   29.84F
NEW BEDFORD    CLOUDY    76  73  91 SW20G25   29.86F
$$

MAZALL-222200-
CAPE COD AND THE ISLANDS

CITY           SKY/WX    TMP DP  RH WIND       PRES   REMARKS
FALMOUTH       CLOUDY    77  73  88 SW18G25   29.89F
HYANNIS        CLOUDY    76  74  93 S15G24    29.87F
CHATHAM        CLOUDY    74  73  97 SW14G23   29.90F
PROVINCETOWN   CLOUDY    77  72  84 S16G22    29.86F
NANTUCKET      CLOUDY    72  72 100 S15       29.91F FOG
MARTHAS VNYRD  CLOUDY    75  72  90 S14G23    29.89F FOG
$$

MAZALL-222200-
CENTRAL AND WESTERN MASSACHUSETTS

CITY           SKY/WX    TMP DP  RH WIND       PRES   REMARKS
WORCESTER      MOSUNNY   84  66  54 S15G28    29.84F
FITCHBURG      SUNNY     91  67  44 S15G25    29.79F HX  94
ORANGE         MOSUNNY   88  70  55 S17       29.79F HX  93
SPRINGFIELD    MOSUNNY   88  70  54 S15G26    29.77F HX  93
WESTFIELD      MOSUNNY   89  72  56 S13G22    29.77F HX  96
NORTH ADAMS    MOSUNNY   85  67  54 S8G24     29.77F
PITTSFIELD     MOSUNNY   83  66  56 S16G24    29.80F
$$

RIZALL-222200-
RHODE ISLAND

CITY           SKY/WX    TMP DP  RH WIND       PRES   REMARKS
PROVIDENCE     MOSUNNY   83  74  74 S23G29    29.86S
NEWPORT        CLOUDY    75  75 100 S10G22    29.87F FOG
BLOCK ISLAND   CLOUDY    75  72  90 S16G22    29.89S FOG
WESTERLY       CLOUDY    78  74  87 SW10G18   29.88F FOG
$$

CTZALL-222200-
CONNECTICUT

CITY           SKY/WX    TMP DP  RH WIND       PRES   REMARKS
BRADLEY INTL   MOSUNNY   88  71  57 S20       29.79F HX  94
HARTFORD       MOSUNNY   86  73  65 S16G26    29.80F HX  93
BRIDGEPORT     SUNNY     84  75  74 S15       29.83F HX  92
DANBURY        MOSUNNY   86  73  65 S15G22    29.84F HX  93
GROTON         CLOUDY    76  73  91 SW8       29.85F FOG
NEW HAVEN      MOSUNNY   83  74  74 S12G21    29.84F
CHESTER        CLOUDY    81  75  83 SW15G21   29.86F
MERIDEN        SUNNY     85  73  67 S15G24    29.83F HX  91
WILLIMANTIC    MOSUNNY   85  73  67 S14       29.83F HX  91
OXFORD         MOSUNNY   83  74  74 S9G17     29.86F HAZE
$$

MEZ002-015-021-024-NHZ003-005-008-011-012-014-VTZ005-008-222200-
NORTHERN NEW ENGLAND

CITY           SKY/WX    TMP DP  RH WIND       PRES   REMARKS
PORTLAND ME    PTSUNNY   78  69  73 S13G21    29.76F
BANGOR ME      CLOUDY    79  68  69 S17       29.76F
CONCORD NH     SUNNY     89  69  51 SW14      29.75F HX  93
MANCHESTER NH  PTSUNNY   90  66  45 SW14      29.75F HX  92
NASHUA NH      MOSUNNY   88  71  57 VRB3      29.77F HX  94
PORTSMOUTH NH  MOSUNNY   89  70  54 S12       29.74F HX  94
JAFFREY NH     MOSUNNY   85  70  60 SW10G21   29.82F
KEENE NH         N/A    N/A N/A N/A MISG        N/A
BURLINGTON VT  CLOUDY    82  72  71 S7        29.65S
MT. WASHINGTON FOG       57  57 100 SW22G48     N/A  VSB 0
$$

NYZ052-076-222200-
EASTERN NEW YORK

CITY           SKY/WX    TMP DP  RH WIND       PRES   REMARKS
ALBANY         PTSUNNY   88  68  51 S17G28    29.72F HX  91
NEW YORK CITY  MOSUNNY   88  76  67 S15       29.81F HX  99
$$

ANZALL-222200-
MARINE OBSERVATIONS

STATION/POSITION TIME  TEMP    WIND        PRES    VSBY  WAVE
                       AIR SEA DIR/SP/G                  HT/PER
                 (UTC) (F)     (DEG/KT/KT) (MB)    (MI)  (FT/S)
BOSTON BUOY      2050   75 69  160/ 14/ 16 1008.9          2/ 3
BUZZARDS BAY     2000   71     200/ 20/ 21 1012.6F
NANTUCKET SOUND  NOT AVBL
MASS BAY-STELLWA 2004   72 66  160/ 16/ 17 1008.7F         2/ 4
ISLE OF SHOALS   2000   74     170/ 21/ 22 1008.2F
S OF BLOCK IS    NOT AVBL
$$

......................KEY.........................
  SKY/WX - SKY CONDITION/PRESENT WEATHER
  TMP    - TEMPERATURE IN FAHRENHEIT
  DWPT   - DEWPOINT IN FAHRENHEIT
  RH     - RELATIVE HUMIDITY IN PERCENT
  WIND   - DIRECTION AND SPEED IN MPH
  PRES   - MEAN SEA LEVEL PRESSURE IN INCHES OF HG
  WCI    - WIND CHILL INDEX
  VSB    - VISIBILITY IN MILES
  HX     - HEAT INDEX
  TC     - TEMPERATURE IN CELSIUS
  VRB    - VARIABLE WIND DIRECTION
  N/A    - NOT AVAILABLE




USA.gov is the U.S. government's official web portal to all federal, state and local government web resources and services.